Location: Daytona Beach
(29.2106°N, 81.0231°W)
Time: 21:01:45
(UTC-04:00)

RS-15 - Pass Details

Date: 28 September 2021
Orbit: 1884 x 2160 km, 64.8° (Epoch: 23 October)

Event Time Altitude Azimuth Distance (km) Brightness Sun altitude
Rises 02:07:43 0° 329° (NNW) 5,659 10.7 -60.1°
Reaches altitude 10° 02:11:10 10° 328° (NNW) 4,668 10.1 -59.8°
Enters shadow 02:13:08 17° 326° (NW) 4,119 9.7 -59.6°
